Regional Weather Roundup
Issued by NWS

Home | Current Version | Previous Version | Graphics & Text | Print | Product List | Glossary On
Versions: 1 2 3 4 5 6 7 8 9 10 11 12 13 14 15 16 17 18 19 20 21 22 23 24 25 26 27 28
000
ASUS45 KBOI 230910
RWRID

IDAHO REGIONAL WEATHER ROUNDUP
NATIONAL WEATHER SERVICE BOISE ID
300 AM MDT TUE AUG 23 2016

NOTE: "FAIR" INDICATES FEW OR NO CLOUDS BELOW 12000 FEET
WITH NO SIGNIFICANT WEATHER AND/OR OBSTRUCTIONS TO VISIBILITY

IDZ012-014-231000-
SOUTHWEST IDAHO


CITY           SKY/WX    TMP DP  RH WIND       PRES   REMARKS
BOISE          CLEAR     59  32  36 W3        30.00R
CALDWELL       CLEAR     59  33  37 W12       30.00R
MOUNTAIN HOME  PTCLDY    61  29  30 NW10      29.99R
$$

IDZ016-017-231000-
SOUTHCENTRAL IDAHO


CITY           SKY/WX    TMP DP  RH WIND       PRES   REMARKS
BURLEY         CLEAR     51  33  50 SW5       30.00R
JEROME         PTCLDY    61  28  28 S3        30.02R
TWIN FALLS     CLEAR     58  25  28 S13       30.02R
$$

IDZ019>023-231000-
SOUTHEAST IDAHO


CITY           SKY/WX    TMP DP  RH WIND       PRES   REMARKS
IDAHO FALLS    CLEAR     56  27  32 S10       30.02R
POCATELLO      CLEAR     59  17  19 S8        30.02S
REXBURG        CLOUDY    55  27  34 S7        30.02R
$$

IDZ006-010-011-018-031-032-231000-
CENTRAL IDAHO MOUNTAINS


CITY           SKY/WX    TMP DP  RH WIND       PRES   REMARKS
MCCALL         CLEAR     48  27  44 SW3       30.10R
HAILEY         PTCLDY    46  23  39 NW7       30.09R
STANLEY          N/A     33  14  45 S3        30.16R
SALMON         CLEAR     52  28  40 CALM      30.04R
CHALLIS        CLEAR     51  18  27 SE3       30.06R
$$

IDZ002-004-006-007-026-231000-
NORTHERN IDAHO


CITY           SKY/WX    TMP DP  RH WIND       PRES   REMARKS
LEWISTON       PTCLDY    59  32  36 S3        30.03R
LOWELL           N/A     51  42  71 CALM      30.09R
COEUR D`ALENE  PTCLDY    54   0  11 CALM      30.01R
MULLAN PASS    PTCLDY    44  28  53 CALM      30.10R
$$




USA.gov is the U.S. government's official web portal to all federal, state and local government web resources and services.